Weather History for Fredericksburg, VA

Change the Weather History Date:

Tuesday, November 12, 2013

  Actual Average (KNYG) Record (KNYG)
Temperature  
Mean Temperature 42 °F -  
Max Temperature 53 °F 54 °F 66 °F (2014)
Min Temperature 32 °F 36 °F 28 °F (1996)
Degree Days  
Heating Degree Days 22    
Moisture  
Dew Point 24 °F    
Average Humidity 46    
Maximum Humidity 63    
Minimum Humidity 36    
Precipitation  
Precipitation 0.00 in - - ()
Sea Level Pressure  
Sea Level Pressure 30.21 in    
Wind  
Wind Speed 10 mph (NNW)    
Max Wind Speed 25 mph    
Max Gust Speed 33 mph    
Visibility 10 miles    
Events      
Averages and records for this station are not official NWS values.
T = Trace of Precipitation, MM = Missing Value Source: NWS Daily Summary

Daily Weather History Graph

Daily Weather History Graph

Search for Another Location

Airport:

Trip Planner

Search our weather history database for the weather conditions in past years. The results will help you decide how hot, cold, wet, or windy it might be!

Date:

Astronomy

Nov. 12, 2013 Rise Set
Actual Time 6:48 AM EST 4:59 PM EST
Civil Twilight 6:19 AM EST 5:27 PM EST
Nautical Twilight 5:48 AM EST 5:59 PM EST
Astronomical Twilight 5:17 AM EST 6:30 PM EST
Moon 2:08 PM EST (11/12) 1:39 AM EST (11/12)
Length of Visible Light 11h 07m
Length of Day
10h 11m
Waxing Gibbous, 76% of the Moon is Illuminated
Nov 12
Waxing Gibbous
Nov 17
Full
Nov 25
Last Quarter
Dec 2
New
Dec 9
First Quarter

Hourly Weather History & Observations

Time (EST) Temp. Windchill Dew Point Humidity Pressure Visibility Wind Dir Wind Speed Gust Speed Precip Events Conditions
12:15 AM 51.4 °F - 30.2 °F 44% 30.03 in 10.0 mi SSW 11.5 mph - N/A   Mostly Cloudy
12:35 AM 51.8 °F - 30.2 °F 44% 30.02 in 10.0 mi SSW 11.5 mph - N/A   Mostly Cloudy
12:55 AM 52.0 °F - 30.2 °F 43% 30.01 in 10.0 mi SSW 12.7 mph - N/A   Scattered Clouds
1:15 AM 52.2 °F - 30.2 °F 43% 30.00 in 10.0 mi SSW 11.5 mph 17.3 mph N/A   Scattered Clouds
1:55 AM 52.7 °F - 30.0 °F 42% 29.98 in 10.0 mi SSW 11.5 mph 18.4 mph N/A   Clear
2:15 AM 53.1 °F - 29.5 °F 40% 29.98 in 10.0 mi SW 9.2 mph - N/A   Clear
2:35 AM 53.1 °F - 29.3 °F 40% 29.97 in 10.0 mi SW 10.4 mph - N/A   Clear
2:55 AM 52.7 °F - 30.0 °F 42% 29.97 in 10.0 mi SW 6.9 mph - N/A   Clear
3:15 AM 52.7 °F - 30.0 °F 42% 29.97 in 10.0 mi SW 6.9 mph - N/A   Scattered Clouds
3:35 AM 52.7 °F - 30.0 °F 42% 29.96 in 10.0 mi SW 8.1 mph - N/A   Mostly Cloudy
3:55 AM 52.5 °F - 30.2 °F 42% 29.97 in 10.0 mi West 5.8 mph - N/A   Mostly Cloudy
4:15 AM 52.2 °F - 30.2 °F 43% 29.99 in 10.0 mi NNW 4.6 mph - N/A   Mostly Cloudy
4:35 AM 51.8 °F - 30.7 °F 45% 30.00 in 10.0 mi North 3.5 mph - N/A   Mostly Cloudy
4:55 AM 51.6 °F - 30.6 °F 45% 30.00 in 10.0 mi North 4.6 mph - N/A   Mostly Cloudy
5:15 AM 50.7 °F - 35.1 °F 55% 30.01 in 10.0 mi Calm Calm - N/A   Mostly Cloudy
5:35 AM 49.1 °F - 34.7 °F 58% 30.01 in 10.0 mi Calm Calm - N/A   Mostly Cloudy
5:55 AM 48.6 °F - 36.3 °F 63% 30.02 in 10.0 mi Calm Calm - N/A   Mostly Cloudy
6:15 AM 49.1 °F - 35.4 °F 59% 30.02 in 10.0 mi Calm Calm - N/A   Scattered Clouds
6:35 AM 49.1 °F - 34.2 °F 56% 30.04 in 10.0 mi Calm Calm - N/A   Mostly Cloudy
6:55 AM 48.2 °F - 35.4 °F 61% 30.06 in 10.0 mi NNW 5.8 mph - N/A   Mostly Cloudy
7:15 AM 51.1 °F - 36.7 °F 58% 30.08 in 10.0 mi North 25.3 mph 32.2 mph N/A   Mostly Cloudy
7:35 AM 48.9 °F - 36.0 °F 61% 30.11 in 10.0 mi NNW 13.8 mph 33.4 mph N/A   Overcast
7:55 AM 47.5 °F - 34.0 °F 59% 30.13 in 10.0 mi North 11.5 mph 24.2 mph N/A   Overcast
8:15 AM 46.6 °F - 32.0 °F 57% 30.15 in 10.0 mi North 17.3 mph 32.2 mph N/A   Overcast
8:35 AM 46.2 °F 39.0 °F 32.0 °F 58% 30.17 in 10.0 mi NW 18.4 mph 26.5 mph N/A   Overcast
8:55 AM 45.0 °F 37.1 °F 30.2 °F 56% 30.18 in 10.0 mi NNW 19.6 mph 31.1 mph N/A   Overcast
9:15 AM 44.8 °F 37.4 °F 30.7 °F 58% 30.19 in 10.0 mi North 17.3 mph 27.6 mph N/A   Overcast
9:35 AM 44.8 °F 38.0 °F 31.6 °F 60% 30.20 in 10.0 mi NNW 15.0 mph 25.3 mph N/A   Overcast
9:55 AM 43.3 °F 36.5 °F 31.5 °F 63% 30.21 in 10.0 mi NNW 13.8 mph 25.3 mph N/A   Mostly Cloudy
10:15 AM 42.3 °F 34.4 °F 30.0 °F 62% 30.23 in 10.0 mi NNW 16.1 mph 27.6 mph N/A   Mostly Cloudy
10:35 AM 41.9 °F 32.3 °F 27.3 °F 56% 30.24 in 10.0 mi North 23.0 mph 32.2 mph N/A   Mostly Cloudy
10:55 AM 41.9 °F 33.4 °F 25.2 °F 52% 30.25 in 10.0 mi NNW 18.4 mph 28.8 mph N/A   Scattered Clouds
11:15 AM 41.4 °F 33.0 °F 20.1 °F 43% 30.25 in 10.0 mi North 17.3 mph 27.6 mph N/A   Scattered Clouds
11:35 AM 41.0 °F 33.5 °F 18.3 °F 40% 30.26 in 10.0 mi North 13.8 mph 27.6 mph N/A   Clear
11:55 AM 40.6 °F 33.8 °F 18.1 °F 40% 30.26 in 10.0 mi NW 11.5 mph 21.9 mph N/A   Scattered Clouds
12:15 PM 40.5 °F 31.5 °F 17.8 °F 40% 30.26 in 10.0 mi NNW 18.4 mph 31.1 mph N/A   Scattered Clouds
12:35 PM 40.5 °F 33.6 °F 19.0 °F 42% 30.26 in 10.0 mi NNW 11.5 mph 17.3 mph N/A   Clear
12:55 PM 40.5 °F 33.2 °F 19.4 °F 43% 30.26 in 10.0 mi NNW 12.7 mph - N/A   Clear
1:15 PM 40.5 °F 32.1 °F 19.8 °F 44% 30.26 in 10.0 mi NNW 16.1 mph 20.7 mph N/A   Clear
1:35 PM 40.5 °F 33.6 °F 19.4 °F 43% 30.27 in 10.0 mi NNW 11.5 mph 20.7 mph N/A   Clear
1:55 PM 40.5 °F 33.2 °F 19.6 °F 43% 30.27 in 10.0 mi NW 12.7 mph 23.0 mph N/A   Clear
2:15 PM 40.3 °F 33.4 °F 19.4 °F 43% 30.27 in 10.0 mi NNW 11.5 mph 23.0 mph N/A   Clear
2:35 PM 40.5 °F 32.8 °F 19.8 °F 44% 30.27 in 10.0 mi NNW 13.8 mph 18.4 mph N/A   Clear
2:55 PM 40.6 °F 34.3 °F 19.9 °F 44% 30.27 in 10.0 mi North 10.4 mph 20.7 mph N/A   Clear
3:15 PM 40.5 °F 33.6 °F 19.6 °F 43% 30.28 in 10.0 mi NNW 11.5 mph 17.3 mph N/A   Clear
3:35 PM 40.5 °F 35.8 °F 19.2 °F 43% 30.28 in 10.0 mi NNW 6.9 mph - N/A   Clear
3:55 PM 40.5 °F 32.5 °F 16.5 °F 38% 30.30 in 10.0 mi NNW 15.0 mph 21.9 mph N/A   Clear
4:15 PM 40.3 °F 33.0 °F 16.2 °F 38% 30.30 in 10.0 mi NNW 12.7 mph 21.9 mph N/A   Clear
4:35 PM 40.3 °F 33.0 °F 15.8 °F 37% 30.30 in 10.0 mi North 12.7 mph 19.6 mph N/A   Clear
4:55 PM 40.3 °F 34.4 °F 14.9 °F 36% 30.31 in 10.0 mi North 9.2 mph 18.4 mph N/A   Clear
5:15 PM 40.1 °F 34.1 °F 14.7 °F 36% 30.31 in 10.0 mi NNW 9.2 mph 16.1 mph N/A   Clear
5:35 PM 40.1 °F 35.3 °F 14.9 °F 36% 30.32 in 10.0 mi NNW 6.9 mph 16.1 mph N/A   Clear
5:55 PM 39.7 °F 33.7 °F 15.1 °F 37% 30.33 in 10.0 mi North 9.2 mph - N/A   Clear
6:15 PM 40.1 °F 34.1 °F 14.9 °F 36% 30.34 in 10.0 mi NNW 9.2 mph 17.3 mph N/A   Clear
6:35 PM 39.9 °F 32.9 °F 14.7 °F 36% 30.35 in 10.0 mi NNW 11.5 mph 20.7 mph N/A   Clear
6:55 PM 39.6 °F 31.3 °F 14.5 °F 36% 30.36 in 10.0 mi NNW 15.0 mph 20.7 mph N/A   Clear
7:15 PM 39.4 °F 32.7 °F 14.7 °F 37% 30.37 in 10.0 mi North 10.4 mph 16.1 mph N/A   Clear
7:35 PM 38.8 °F 32.1 °F 15.3 °F 38% 30.37 in 10.0 mi NNW 10.4 mph 16.1 mph N/A   Clear
7:55 PM 38.8 °F 31.6 °F 14.7 °F 37% 30.38 in 10.0 mi North 11.5 mph 20.7 mph N/A   Clear
8:15 PM 38.7 °F 33.6 °F 14.5 °F 37% 30.38 in 10.0 mi NNW 6.9 mph 17.3 mph N/A   Clear
8:35 PM 38.3 °F 30.5 °F 14.5 °F 38% 30.39 in 10.0 mi NNW 12.7 mph 17.3 mph N/A   Clear
8:55 PM 37.8 °F 31.8 °F 15.3 °F 40% 30.39 in 10.0 mi NNW 8.1 mph 17.3 mph N/A   Clear
9:15 PM 37.0 °F 31.0 °F 15.8 °F 42% 30.40 in 10.0 mi NNW 8.1 mph - N/A   Clear
9:35 PM 36.3 °F 33.7 °F 16.2 °F 44% 30.40 in 10.0 mi NNW 3.5 mph - N/A   Clear
9:55 PM 34.7 °F 30.6 °F 16.7 °F 48% 30.41 in 10.0 mi NW 4.6 mph - N/A   Clear
10:15 PM 34.3 °F 29.2 °F 16.7 °F 49% 30.42 in 10.0 mi NW 5.8 mph - N/A   Clear
10:35 PM 34.2 °F 30.0 °F 16.7 °F 49% 30.42 in 10.0 mi NNW 4.6 mph - N/A   Clear
10:55 PM 33.8 °F 30.8 °F 17.2 °F 51% 30.42 in 10.0 mi NNW 3.5 mph - N/A   Clear
11:15 PM 33.3 °F 30.2 °F 17.1 °F 51% 30.42 in 10.0 mi NW 3.5 mph - N/A   Clear
11:35 PM 32.0 °F 25.6 °F 18.0 °F 56% 30.42 in 10.0 mi NW 6.9 mph - N/A   Clear
11:55 PM 33.1 °F 26.9 °F 18.1 °F 54% 30.43 in 10.0 mi NW 6.9 mph - N/A   Clear